[[{"header":{"parameterUnit":"m.s-1","parameterCategory":1,"la1":30.2991,"la2":30.254,"lo1":-89.0895,"lo2":-89.0444,"dy":0.0017,"dx":0.0017,"nx":28,"ny":28,"refTime":"2024-05-10T21:00:00:Z","depth":0,"parameterNumber":2,"parameterNumberName":"U-component_of_WINDS"},"data":[0,0,0,0,0,0,0,0,0,0,0,0,0,0,0,0,0,0,0,0,0,0,0,0,0,0,0,0,0,0,0,0,0,0,0,0,0,0,0,0,0,0,0,0,0,0,0,0,0,0,0,0,0,0,0,0,0,0,-2.675,-2.675,0,-2.6793,-2.6793,-2.6793,-2.6684,-2.668,-2.6677,-2.6673,-2.672,-2.6724,-2.6729,0,0,0,0,0,0,0,0,0,0,0,0,0,-2.6575,-2.6579,-2.675,-2.675,-2.6751,-2.6792,-2.6793,-2.6794,-2.6684,-2.668,-2.6676,-2.6672,-2.6718,-2.6724,-2.6729,0,0,0,0,0,0,0,0,0,0,0,0,0,-2.6638,-2.658,-2.675,-2.6701,-2.6697,-2.6792,-2.6793,-2.6794,-2.6685,-2.668,-2.6675,-2.667,-2.6717,-2.6723,-2.673,-2.6874,0,0,-2.675,-2.6753,0,0,0,0,0,0,0,0,-2.6635,-2.6645,-2.6708,-2.6705,-2.6701,-2.6727,-2.6748,-2.6821,-2.6686,-2.669,-2.6673,-2.6667,-2.6727,-2.6732,-2.6752,-2.6877,-2.6879,-2.6751,-2.6755,-2.6758,-2.676,0,0,0,0,0,0,0,-2.663,-2.6642,-2.6767,-2.6709,-2.6705,-2.6678,-2.6681,-2.6762,-2.6737,-2.6689,-2.6681,-2.6688,-2.6724,-2.6746,-2.6752,-2.6879,-2.6751,-2.6756,-2.6761,-2.6763,-2.7125,-2.7131,0,0,0,0,0,0,-2.6632,-2.6639,-2.6765,-2.6768,-2.6654,-2.6685,-2.6689,-2.6724,-2.6736,-2.6732,-2.6692,-2.6682,-2.6737,-2.6744,-2.6753,-2.6924,-2.6758,-2.6764,-2.6768,-2.712,-2.7126,-2.7133,0,0,0,0,0,0,-2.6629,-2.6644,-2.6764,-2.6702,-2.6715,-2.6694,-2.6734,-2.6728,-2.6749,-2.6738,-2.6733,-2.6719,-2.6733,-2.6744,-2.6845,-2.6924,-2.6767,-2.6773,-2.7113,-2.7122,-2.713,-2.7267,0,0,0,0,0,0,-2.6624,-2.6644,-2.6698,-2.6704,-2.6718,-2.6855,-2.6739,-2.6732,-2.6761,-2.6749,-2.6762,-2.6759,-2.673,-2.6836,-2.6852,-2.693,-2.6778,-2.7106,-2.7117,-2.7127,-2.7255,-2.7279,-2.7299,0,0,0,0,0,-2.6618,-2.6736,-2.6702,-2.6718,-2.6786,-2.686,-2.6868,-2.6831,-2.6768,-2.6823,-2.6815,-2.6759,-2.6912,-2.6847,-2.6864,-2.6946,-2.7101,-2.7114,-2.7126,-2.7245,-2.7274,-2.7299,0,0,0,0,0,0,-2.6742,-2.6736,-2.6698,-2.682,-2.6841,-2.6841,-2.6909,-2.6863,-2.6903,-2.689,-2.6843,-2.6847,-2.6958,-2.6961,-2.6889,-2.7087,-2.6996,-2.7013,-2.7081,-2.7108,-2.713,-2.7127,-2.6784,0,0,0,0,0,-2.6783,-2.6842,-2.6834,-2.6943,-2.6955,-2.6931,-2.6961,-2.6931,-2.6951,-2.696,-2.6959,-2.6982,-2.7035,-2.7071,-2.712,-2.7254,-2.7256,-2.7319,-2.7341,-2.7359,-2.7375,-2.7447,-2.7475,-2.7174,-2.7174,-2.7174,0,0,-2.6869,-2.6873,-2.6914,-2.6968,-2.698,-2.7044,-2.6939,-2.701,-2.7057,-2.6971,-2.7066,-2.7067,-2.7089,-2.7208,-2.726,-2.7214,-2.7458,-2.7375,-2.739,-2.7396,-2.7463,-2.7492,-2.7517,-2.7183,-2.7181,-2.718,0,0,-2.7059,-2.7068,-2.716,-2.7174,-2.7194,-2.7177,-2.7199,-2.7205,-2.7202,-2.7297,-2.7234,-2.7289,-2.7381,-2.7399,-2.7421,-2.7617,-2.7567,-2.7634,-2.775,-2.7821,-2.7845,-2.7865,-2.7937,-2.7963,-2.7649,-2.7649,-2.765,0,-2.7164,-2.7257,-2.7213,-2.7289,-2.7315,-2.7238,-2.7331,-2.7347,-2.7383,-2.7403,-2.7351,-2.7465,-2.7474,-2.7597,-2.7644,-2.7664,-2.7688,-2.7633,-2.7844,-2.7865,-2.7884,-2.7951,-2.7978,-2.7657,-2.7656,-2.7656,-2.7655,0,-2.7386,-2.7451,-2.7523,-2.7558,-2.7592,-2.7676,-2.7646,-2.7685,-2.7651,-2.764,-2.7738,-2.7746,-2.7795,-2.7821,-2.7789,-2.7939,-2.791,-2.7852,-2.776,-2.7922,-2.7984,-2.801,-2.7669,-2.7666,-2.7664,-2.7662,0,0,-2.7657,-2.7666,-2.7693,-2.7708,-2.7724,-2.7774,-2.7854,-2.7901,-2.7937,-2.7963,-2.8031,-2.811,-2.8056,-2.8081,-2.805,-2.8112,-2.8268,-2.8046,-2.8046,-2.8089,-2.8435,-2.8481,-2.8511,-2.8234,-2.8238,-2.8242,-2.8434,0,-2.7846,-2.7984,-2.7946,-2.8085,-2.8145,-2.8072,-2.8142,-2.816,-2.8151,-2.8201,-2.819,-2.8248,-2.8172,-2.8186,-2.8244,-2.8237,-2.8337,-2.8222,-2.8298,-2.8301,-2.8297,-2.8544,-2.8592,-2.8772,-2.8458,-2.8462,-2.8465,0,-2.8085,-2.812,-2.8265,-2.827,-2.8294,-2.8358,-2.8398,-2.8446,-2.8465,-2.8453,-2.8481,-2.8437,-2.8517,-2.8423,-2.8533,-2.8456,-2.8484,-2.8485,-2.8491,-2.8499,-2.8395,-2.856,-2.8829,-2.8857,-2.8503,-2.85,-2.8497,0,-2.827,-2.8353,-2.8451,-2.8465,-2.8474,-2.8521,-2.8527,-2.854,-2.8571,-2.8605,-2.8625,-2.8669,-2.8694,-2.8729,-2.8699,-2.8633,-2.8815,-2.8717,-2.8809,-2.881,-2.8853,-2.8851,-2.9132,-2.8868,-2.8867,-2.8867,-2.8866,0,-2.8486,-2.8578,-2.8534,-2.8594,-2.8695,-2.865,-2.8751,-2.8749,-2.8761,-2.882,-2.8758,-2.8815,-2.8771,-2.8824,-2.88,-2.8896,-2.8907,-2.8901,-2.8895,-2.8908,-2.8909,-2.8928,-2.8915,-2.8874,-2.8872,-2.8871,-2.887,0,-2.8712,-2.8685,-2.8787,-2.8786,-2.8788,-2.8863,-2.8862,-2.8918,-2.8903,-2.8979,-2.8994,-2.8972,-2.9031,-2.9004,-2.9066,-2.905,-2.9174,-2.9149,-2.9168,-2.9162,-2.9256,-2.9248,-2.9561,-2.96,-2.9309,-2.9311,-2.9314,0,-2.8852,-2.8921,-2.8927,-2.8962,-2.8972,-2.9028,-2.9059,-2.9017,-2.9052,-2.9078,-2.9131,-2.9184,-2.9225,-2.9323,-2.9313,-2.936,-2.9337,-2.9443,-2.9344,-2.9356,-2.9341,-2.9338,-2.9346,-2.9464,-2.9468,-2.9471,-2.9473,0,-2.9105,-2.9089,-2.9135,-2.9177,-2.9214,-2.9246,-2.9271,-2.9303,-2.9263,-2.9304,-2.9364,-2.9395,-2.9458,-2.9512,-2.9553,-2.956,-2.9511,-2.9504,-2.9528,-2.9544,-2.9552,-2.9551,-2.9224,-2.9497,-2.9495,-2.9493,-2.9492,-2.9491,-2.9294,-2.9351,-2.9365,-2.9418,-2.9433,-2.9459,-2.9511,-2.9503,-2.9551,-2.9599,-2.9571,-2.9641,-2.9657,-2.9707,-2.972,-2.9774,-2.9732,-2.9767,-2.9776,-2.9785,-2.9799,-2.9542,-2.9781,-2.978,-2.978,-2.9779,-2.9778,0,-2.9545,-2.955,-2.9599,-2.9637,-2.9679,-2.9627,-2.9652,-2.9692,-2.9753,-2.9772,-2.9813,-2.9881,-2.9933,-2.9927,-2.9975,-3.002,-2.9999,-3.0034,-3.0031,-3.0034,-2.9832,-2.9808,-3.005,-3.005,-3.005,-3.005,-3.005,-3.005,-2.9681,-2.9776,-2.9761,-2.9863,-2.9867,-2.9934,-2.9954,-2.9977,-2.9992,-3.0071,-3.0113,-3.0108,-3.0117,-3.0165,-3.0211,-3.0208,-3.0229,-3.0273,-3.0262,-3.0075,-3.0048,-3.0022,-2.9999,-3.0278,-3.0278,-3.0459,-3.0461,-3.0462]},{"header":{"parameterUnit":"m.s-1","parameterCategory":1,"la1":30.2991,"la2":30.254,"lo1":-89.0895,"lo2":-89.0444,"dy":0.0017,"dx":0.0017,"nx":28,"ny":28,"refTime":"2024-05-10T21:00:00:Z","depth":0,"parameterNumber":3,"parameterNumberName":"V-component_of_WINDS"},"data":[0,0,0,0,0,0,0,0,0,0,0,0,0,0,0,0,0,0,0,0,0,0,0,0,0,0,0,0,0,0,0,0,0,0,0,0,0,0,0,0,0,0,0,0,0,0,0,0,0,0,0,0,0,0,0,0,0,0,-5.6882,-5.6883,0,-5.6918,-5.6918,-5.6918,-5.6816,-5.6813,-5.681,-5.6807,-5.6841,-5.6844,-5.6848,0,0,0,0,0,0,0,0,0,0,0,0,0,-5.6723,-5.6727,-5.6882,-5.6883,-5.6883,-5.6918,-5.6918,-5.6919,-5.6817,-5.6813,-5.6809,-5.6806,-5.6839,-5.6844,-5.6848,0,0,0,0,0,0,0,0,0,0,0,0,0,-5.6779,-5.6728,-5.6882,-5.6837,-5.6833,-5.6918,-5.6918,-5.6919,-5.6818,-5.6813,-5.6808,-5.6804,-5.6838,-5.6843,-5.6849,-5.6978,0,0,-5.6866,-5.6869,0,0,0,0,0,0,0,0,-5.6776,-5.6785,-5.6843,-5.684,-5.6836,-5.6858,-5.6874,-5.6939,-5.6819,-5.6824,-5.6807,-5.6802,-5.685,-5.6854,-5.6871,-5.698,-5.6981,-5.6867,-5.687,-5.6873,-5.6874,0,0,0,0,0,0,0,-5.6772,-5.6783,-5.6896,-5.6844,-5.684,-5.6813,-5.6816,-5.6886,-5.6863,-5.6823,-5.6816,-5.6821,-5.6847,-5.6866,-5.6871,-5.6982,-5.6867,-5.6872,-5.6875,-5.6878,-5.7196,-5.7201,0,0,0,0,0,0,-5.6775,-5.678,-5.6895,-5.6897,-5.6794,-5.682,-5.6823,-5.6856,-5.6862,-5.6858,-5.6825,-5.6816,-5.6859,-5.6865,-5.6872,-5.7023,-5.6873,-5.6878,-5.6881,-5.7191,-5.7197,-5.7203,0,0,0,0,0,0,-5.6772,-5.6786,-5.6894,-5.6837,-5.6849,-5.6828,-5.6865,-5.6859,-5.6877,-5.6863,-5.6858,-5.6849,-5.6855,-5.6864,-5.6952,-5.7022,-5.6881,-5.6886,-5.7185,-5.7193,-5.72,-5.7326,0,0,0,0,0,0,-5.6768,-5.6786,-5.6835,-5.6839,-5.6852,-5.6975,-5.687,-5.6863,-5.6888,-5.6877,-5.6884,-5.6881,-5.6852,-5.6944,-5.6958,-5.7028,-5.689,-5.7179,-5.7189,-5.7198,-5.7315,-5.7337,-5.7355,0,0,0,0,0,-5.6762,-5.6869,-5.6838,-5.6853,-5.6914,-5.6979,-5.6987,-5.6952,-5.6894,-5.6943,-5.6934,-5.6881,-5.7013,-5.6954,-5.6969,-5.7041,-5.7174,-5.7186,-5.7197,-5.7306,-5.7333,-5.7355,0,0,0,0,0,0,-5.6873,-5.6869,-5.6835,-5.6946,-5.6964,-5.6962,-5.7023,-5.6981,-5.7015,-5.7003,-5.6957,-5.696,-5.7056,-5.7057,-5.6993,-5.7166,-5.7083,-5.7098,-5.7162,-5.7186,-5.7206,-5.7203,-5.6895,0,0,0,0,0,-5.6911,-5.6966,-5.6958,-5.7057,-5.7068,-5.7044,-5.7071,-5.7043,-5.7059,-5.7066,-5.7063,-5.708,-5.7125,-5.7156,-5.7197,-5.7315,-5.7314,-5.7372,-5.7392,-5.7408,-5.7421,-5.7483,-5.7508,-5.724,-5.724,-5.724,0,0,-5.6989,-5.6993,-5.703,-5.7079,-5.709,-5.7146,-5.7051,-5.7115,-5.7156,-5.7075,-5.7159,-5.7157,-5.7173,-5.7277,-5.7323,-5.7281,-5.7495,-5.7423,-5.7436,-5.744,-5.7497,-5.7522,-5.7545,-5.7248,-5.7246,-5.7245,0,0,-5.716,-5.7169,-5.7252,-5.7264,-5.7282,-5.7265,-5.7286,-5.729,-5.7286,-5.7369,-5.731,-5.7357,-5.7436,-5.745,-5.7467,-5.7642,-5.7594,-5.7657,-5.776,-5.7821,-5.7842,-5.786,-5.7922,-5.7945,-5.767,-5.767,-5.767,0,-5.7254,-5.7338,-5.7299,-5.7367,-5.739,-5.7321,-5.7403,-5.7417,-5.7447,-5.7463,-5.7417,-5.7514,-5.7519,-5.7625,-5.7668,-5.7684,-5.7705,-5.7655,-5.7842,-5.786,-5.7877,-5.7935,-5.7959,-5.7678,-5.7677,-5.7676,-5.7675,0,-5.7452,-5.7511,-5.7576,-5.7607,-5.7637,-5.7712,-5.7684,-5.7718,-5.7687,-5.7676,-5.776,-5.7765,-5.7805,-5.7828,-5.7798,-5.7929,-5.7903,-5.785,-5.7766,-5.7911,-5.7964,-5.7986,-5.7688,-5.7686,-5.7683,-5.7681,0,0,-5.7694,-5.7703,-5.7727,-5.774,-5.7754,-5.7798,-5.7869,-5.7909,-5.7939,-5.7962,-5.802,-5.8088,-5.8039,-5.8059,-5.8029,-5.8083,-5.822,-5.8023,-5.8023,-5.8059,-5.8364,-5.8403,-5.8429,-5.8189,-5.8193,-5.8196,-5.8362,0,-5.7861,-5.7985,-5.7952,-5.8074,-5.8127,-5.8062,-5.8124,-5.8138,-5.8129,-5.8172,-5.816,-5.8209,-5.8142,-5.8153,-5.8203,-5.8193,-5.8281,-5.8181,-5.8241,-5.8243,-5.8238,-5.8458,-5.85,-5.8656,-5.8383,-5.8386,-5.8389,0,-5.8074,-5.8105,-5.8233,-5.8238,-5.8258,-5.8315,-5.8348,-5.839,-5.8405,-5.8394,-5.8416,-5.8376,-5.8445,-5.8361,-5.8455,-5.8387,-5.841,-5.8409,-5.8414,-5.8418,-5.8325,-5.8467,-5.8705,-5.8729,-5.8422,-5.8419,-5.8417,0,-5.8236,-5.831,-5.8396,-5.8409,-5.8417,-5.8458,-5.8463,-5.8473,-5.8499,-5.8528,-5.8543,-5.858,-5.86,-5.8628,-5.8599,-5.8541,-5.8696,-5.861,-5.8688,-5.8689,-5.8724,-5.8722,-5.8969,-5.874,-5.8739,-5.8739,-5.8739,0,-5.8426,-5.8507,-5.8469,-5.8522,-5.861,-5.8571,-5.8659,-5.8656,-5.8665,-5.8715,-5.8661,-5.8709,-5.8667,-5.8711,-5.8688,-5.8768,-5.8778,-5.877,-5.8763,-5.8775,-5.8776,-5.8788,-5.8777,-5.8745,-5.8744,-5.8743,-5.8742,0,-5.8623,-5.8601,-5.869,-5.869,-5.8692,-5.8756,-5.8756,-5.8804,-5.879,-5.8854,-5.8867,-5.8846,-5.8895,-5.8868,-5.8918,-5.8902,-5.9006,-5.8985,-5.9002,-5.8996,-5.9075,-5.9068,-5.9338,-5.9371,-5.9122,-5.9125,-5.9127,0,-5.8745,-5.8806,-5.8812,-5.8842,-5.8851,-5.89,-5.8926,-5.889,-5.8919,-5.894,-5.8986,-5.903,-5.9063,-5.9144,-5.9132,-5.917,-5.9148,-5.924,-5.9153,-5.9163,-5.9149,-5.9145,-5.9151,-5.9258,-5.9261,-5.9263,-5.9265,0,-5.8965,-5.8951,-5.8991,-5.9028,-5.9061,-5.9088,-5.911,-5.9137,-5.9101,-5.9137,-5.9186,-5.9212,-5.9264,-5.9308,-5.934,-5.9343,-5.9298,-5.9293,-5.9312,-5.9325,-5.9332,-5.9328,-5.9049,-5.9286,-5.9284,-5.9283,-5.9281,-5.9281,-5.9127,-5.9177,-5.919,-5.9236,-5.9249,-5.9271,-5.9316,-5.9309,-5.935,-5.9389,-5.9365,-5.9423,-5.9435,-5.9473,-5.9483,-5.9527,-5.949,-5.9519,-5.9526,-5.9534,-5.9544,-5.9326,-5.9533,-5.9532,-5.9531,-5.9531,-5.953,0,-5.9343,-5.9348,-5.9391,-5.9424,-5.946,-5.9416,-5.9437,-5.9471,-5.9523,-5.9538,-5.9572,-5.9629,-5.9671,-5.9663,-5.9701,-5.9738,-5.9718,-5.9749,-5.9745,-5.9747,-5.9575,-5.9554,-5.9764,-5.9764,-5.9764,-5.9764,-5.9764,-5.9764,-5.9459,-5.9542,-5.953,-5.9618,-5.9621,-5.9679,-5.9695,-5.9714,-5.9726,-5.9792,-5.9827,-5.9822,-5.9828,-5.9866,-5.9902,-5.9898,-5.9915,-5.9953,-5.9942,-5.9782,-5.9759,-5.9737,-5.9717,-5.9957,-5.9958,-6.0109,-6.0111,-6.0112]}]]